Hourly Data Report for September 18, 2017

All times are specified in Local Standard Time (LST). Add 1 hour to adjust for Daylight Saving Time where and when it is observed.

PORT ALBERNI (AUT)
BRITISH COLUMBIA

49°18'59.700" N
124°55'36.600" W
76.20 m
1036B06
71475
WQC

Related Data

No related data is available for this station

Download Data

Hourly Data (September 2017)
Hourly Data Report for September 18, 2017
Temp Definition
°C
Dew Point Temp Definition
°C
Rel Hum Definition
%
Wind Dir Definition
10's deg

Wind Spd Definition
km/h
Visibility Definition
km
Stn Press Definition
kPa
Hmdx Definition


Wind Chill Definition


Weather Definition


TIME
00:00 9.1 8.3 95 33 4   99.87     LegendNANA
01:00 7.9 7.5 97 14 3   99.87     LegendNANA
02:00 7.5 7.1 97 26 2   99.84     LegendNANA
03:00 8.4 8.1 98 7 3   99.80     LegendNANA
04:00 7.2 6.9 98 28 6   99.79     LegendNANA
05:00 7.3 7.1 99 29 3   99.79     LegendNANA
06:00 6.1 5.8 98 31 3   99.79     LegendNANA
07:00 7.4 7.2 99 35 2   99.80     LegendNANA
08:00 8.5 7.8 95 0 1   99.77     LegendNANA
09:00 10.6 7.9 84 26 1   99.79     LegendNANA
10:00 12.3 8.5 78 7 3   99.78     LegendNANA
11:00 13.7 7.6 67 10 6   99.74     LegendNANA
12:00 14.7 7.5 62 13 8   99.69     LegendNANA
13:00 13.9 8.7 71 17 6   99.67     LegendNANA
14:00 13.3 8.8 74 6 7   99.63     LegendNANA
15:00 14.5 7.2 61 9 5   99.57     LegendNANA
16:00 12.8 9.2 79 27 4   99.56     LegendNANA
17:00 11.9 9.5 85 15 4   99.58     LegendNANA
18:00 10.5 9.4 93 9 7   99.58     LegendNANA
19:00 10.3 9.4 95 3 1   99.54     LegendNANA
20:00 9.9 9.1 95 3 2   99.56     LegendNANA
21:00 9.6 8.9 95 4 2   99.55     LegendNANA
22:00 9.5 8.7 95 34 2   99.56     LegendNANA
23:00 9.4 8.8 96 31 6   99.57     LegendNANA

Notes on Data Quality.

Legend

  • E = Estimated
  • M = Missing
  • NA = Not Available
  • ‡ = Partner data that is not subject to review by the National Climate Archives
Date modified: